Temperature
0 1 1 1 1 1 1 1 1 2 2 3 3 2 3 3 3 3 3 3 3 3 3 3 2 2 2 2 2 2 2 2 2 1 1 1 1 1 1 1 1 1 1 1
-0 0 0 0 1 1 1 1 1 1 2 2 3 3 2 2 2 2 2 2 2 2 2 2 2 2 2 2 2 1 1 1 1 1 1 1 1 1 1 1 1 1 1 0
-1 -1 -0 -0 0 0 0 0 1 1 2 2 1 1 1 2 2 2 2 2 2 2 2 2 1 1 1 1 1 1 1 1 1 0 0 0 0 0 0 0 0 0 0 -0
-2 -1 -1 1 1 1 1 1 0 1 1 1 1 2 2 2 2 2 2 2 1 1 1 1 1 1 1 1 0 0 0 0 0 0 0 -0 -0 -0 -1 -1 -0 -0 -1 -1
-3 -2 -1 0 0 -0 -0 0 0 0 0 0 1 0 1 2 2 2 1 1 1 1 1 0 0 0 0 -0 -0 -0 -0 -0 -0 -0 -0 -1 -1 -1 -1 -1 -1 -1 -1 -1
-3 -2 -1 1 0 -0 0 -0 -0 -1 -1 -1 -0 -1 -0 1 1 1 1 1 0 0 0 0 -0 -0 -0 -1 -1 -1 -1 -1 -1 -1 -1 -1 -1 -1 -1 -2 -2 -2 -2 -2
-3 -3 -2 -1 -1 -0 0 0 0 0 -0 -1 -1 -0 1 1 0 0 0 -0 -0 -0 -0 -0 -1 -1 -1 -1 -1 -1 -1 -1 -1 -1 -1 -1 -2 -2 -2 -2 -2 -2 -2 -2
-4 -3 -2 -1 -2 -1 -1 0 0 0 0 -0 -0 -0 -0 -0 -0 -0 -1 -1 -1 -1 -1 -1 -1 -1 -1 -1 -1 -2 -2 -2 -2 -2 -2 -2 -2 -2 -2 -3 -3 -3 -3 -3
-3 -2 -1 -1 -1 -0 -0 -0 -0 -0 0 -0 -1 -1 -1 -1 -1 -1 -1 -1 -2 -2 -2 -2 -2 -2 -2 -2 -2 -2 -2 -2 -2 -2 -2 -2 -2 -3 -3 -3 -3 -3 -3 -3
-4 -3 -2 -2 -1 -0 -0 -0 -0 -0 -1 -1 -1 -1 -1 -1 -1 -2 -2 -2 -2 -2 -2 -2 -2 -2 -2 -2 -3 -3 -3 -3 -3 -3 -3 -3 -3 -3 -3 -3 -4 -4 -4 -4
-4 -4 -3 -2 -1 -1 -1 -1 -1 -1 -1 -1 -1 -2 -2 -2 -2 -2 -2 -2 -2 -2 -3 -3 -3 -3 -3 -3 -3 -3 -3 -3 -3 -3 -3 -3 -4 -4 -4 -4 -4 -4 -4 -4
-3 -3 -3 -2 -1 -1 -1 -2 -2 -2 -2 -2 -2 -2 -2 -2 -3 -3 -3 -3 -3 -3 -3 -3 -3 -3 -3 -3 -4 -4 -4 -4 -4 -4 -4 -4 -4 -4 -4 -5 -5 -5 -5 -5
-1 -1 -1 -2 -2 -2 -2 -2 -2 -2 -2 -2 -2 -2 -3 -3 -3 -3 -3 -3 -3 -3 -4 -4 -4 -4 -4 -4 -4 -4 -4 -4 -4 -4 -4 -5 -5 -5 -5 -5 -5 -5 -5 -5
-2 -2 -3 -2 -2 -2 -3 -3 -3 -3 -3 -3 -3 -3 -3 -3 -4 -4 -4 -4 -4 -4 -4 -4 -4 -4 -4 -4 -4 -5 -5 -5 -5 -5 -5 -5 -5 -6 -6 -6 -6 -5 -5 -5
-3 -3 -3 -3 -3 -3 -3 -3 -3 -3 -3 -3 -3 -3 -4 -4 -4 -4 -4 -4 -4 -4 -4 -4 -4 -5 -5 -5 -5 -5 -5 -5 -5 -5 -6 -6 -6 -6 -6 -6 -6 -6 -6 -6
-3 -3 -3 -4 -4 -4 -4 -4 -4 -4 -4 -4 -4 -4 -4 -4 -4 -4 -5 -5 -5 -5 -5 -5 -5 -5 -5 -5 -5 -6 -6 -6 -6 -6 -6 -6 -6 -7 -7 -6 -6 -6 -6 -6
-4 -4 -4 -4 -4 -4 -4 -4 -4 -4 -4 -4 -4 -5 -5 -5 -5 -5 -5 -5 -5 -5 -5 -5 -5 -6 -6 -6 -6 -6 -6 -6 -6 -6 -7 -7 -7 -7 -7 -7 -7 -7 -7 -7
-4 -4 -4 -4 -4 -5 -5 -4 -5 -5 -5 -5 -5 -5 -5 -5 -5 -5 -5 -5 -6 -6 -6 -6 -6 -6 -6 -6 -6 -6 -7 -7 -7 -7 -7 -7 -7 -7 -7 -7 -7 -7 -7 -7
-4 -5 -5 -5 -5 -5 -5 -5 -5 -5 -5 -5 -5 -5 -5 -5 -6 -6 -6 -6 -6 -6 -6 -6 -6 -6 -6 -6 -7 -7 -7 -7 -7 -7 -7 -7 -7 -7 -7 -8 -8 -8 -8 -7
-5 -5 -5 -5 -5 -5 -5 -5 -5 -5 -6 -5 -5 -6 -6 -6 -6 -6 -6 -6 -6 -7 -7 -7 -7 -7 -7 -7 -7 -7 -7 -7 -8 -8 -8 -8 -8 -8 -8 -8 -8 -8 -8 -8
-5 -5 -5 -5 -5 -5 -5 -6 -6 -6 -6 -6 -6 -6 -6 -6 -6 -7 -7 -7 -7 -7 -7 -7 -7 -7 -7 -7 -7 -7 -8 -8 -8 -8 -8 -8 -8 -8 -8 -8 -8 -8 -8 -8
-5 -5 -6 -6 -6 -6 -6 -6 -6 -6 -6 -6 -6 -6 -7 -7 -7 -7 -7 -7 -7 -8 -8 -8 -8 -8 -8 -8 -8 -8 -8 -8 -8 -8 -8 -8 -8 -8 -8 -8 -8 -8 -8 -8
-6 -6 -6 -6 -6 -6 -6 -6 -6 -7 -7 -7 -7 -7 -7 -7 -7 -7 -8 -8 -8 -8 -8 -8 -8 -8 -8 -8 -8 -8 -8 -8 -8 -8 -8 -8 -9 -9 -9 -9 -9 -9 -9 -9
-6 -6 -6 -6 -6 -7 -7 -7 -7 -7 -7 -7 -7 -7 -7 -8 -8 -8 -8 -8 -8 -8 -8 -8 -8 -8 -8 -8 -8 -8 -9 -9 -9 -9 -9 -9 -9 -9 -9 -9 -9 -9 -9 -9
-6 -7 -7 -7 -7 -7 -7 -7 -7 -7 -7 -7 -7 -8 -8 -8 -8 -8 -8 -8 -8 -9 -9 -9 -9 -9 -9 -9 -9 -9 -9 -9 -9 -9 -9 -9 -9 -9 -9 -9 -9 -9 -9 -9
-7 -7 -7 -7 -7 -7 -7 -7 -7 -7 -8 -8 -8 -8 -8 -8 -8 -9 -9 -9 -9 -9 -9 -9 -9 -9 -9 -9 -9 -9 -9 -9 -9 -9 -9 -9 -9 -9 -9 -9 -9 -9 -9 -9
-7 -7 -7 -7 -7 -8 -8 -8 -8 -8 -8 -8 -8 -8 -8 -8 -9 -9 -9 -9 -9 -9 -9 -9 -9 -9 -9 -9 -9 -9 -9 -9 -9 -9 -9 -9 -9 -9 -9 -9 -9 -9 -9 -9
Wind_Speed
7 6 4 7 9 9 10 10 10 11 12 13 9 8 7 5 5 5 5 5 5 4 3 3 2 2 2 3 2 2 2 1 2 2 1 1 1 0 0 1 1 1 1 1
5 5 5 8 11 12 13 11 12 12 15 11 6 4 5 6 6 7 7 6 5 5 4 4 4 4 3 3 3 3 3 3 2 2 2 1 1 0 0 1 1 1 1 1
5 4 4 8 10 12 8 9 9 14 14 5 4 6 7 7 7 7 7 6 5 5 5 5 5 4 4 4 3 3 3 3 2 2 2 2 1 1 1 1 1 1 1 2
2 1 7 8 3 7 9 10 10 9 8 6 7 6 6 6 7 7 7 6 5 4 4 4 4 3 3 2 3 3 3 3 2 2 2 1 1 1 1 1 1 1 2 2
3 4 8 8 4 4 6 9 9 10 8 5 3 3 5 5 6 7 6 4 4 4 4 4 3 3 3 3 3 3 3 3 3 3 3 2 2 2 1 1 1 1 1 2
4 4 7 8 4 2 1 7 5 6 7 5 1 3 6 3 3 3 3 2 3 3 2 3 3 3 3 3 3 4 4 4 3 3 3 3 3 2 1 1 1 1 2 2
6 6 8 7 4 2 4 7 3 4 5 5 5 6 3 1 1 2 2 2 2 2 2 3 2 2 3 3 4 4 3 2 2 2 3 3 2 2 2 1 1 1 2 2
5 6 9 3 3 5 6 3 3 3 4 4 4 3 2 2 2 1 1 1 1 2 2 2 2 2 3 3 3 2 2 2 2 2 2 2 2 2 2 2 2 2 2 3
8 8 5 3 5 4 3 4 4 4 5 3 3 3 3 2 2 2 2 1 1 2 2 1 1 3 3 3 2 1 2 2 2 1 1 2 2 2 2 2 2 2 2 2
5 8 6 6 5 5 4 4 5 4 4 3 4 4 3 2 2 2 2 2 1 2 2 2 1 2 3 2 2 2 2 2 1 1 1 1 2 2 2 2 2 2 2 3
7 7 5 6 6 6 5 4 3 3 3 3 3 3 3 3 3 3 2 2 2 2 3 3 2 2 2 1 2 2 2 1 1 1 1 1 2 2 3 3 4 3 3 3
8 7 5 7 6 5 5 5 4 3 3 2 3 3 2 2 2 2 2 2 2 2 3 2 2 2 2 1 2 2 2 2 1 1 1 1 1 2 3 4 5 6 5 5
7 5 5 6 5 4 4 4 3 3 3 3 2 2 2 2 2 2 2 2 2 3 3 2 2 2 2 1 2 2 2 2 2 1 2 2 2 2 2 3 5 5 5 6
4 3 4 5 5 4 3 3 2 2 2 2 1 1 1 1 1 2 3 3 2 2 2 2 2 3 2 2 2 2 2 2 2 2 2 2 2 2 2 2 3 3 4 6
4 4 5 4 3 3 2 1 1 2 2 2 1 1 1 1 2 2 2 2 1 1 2 2 2 3 2 2 2 2 2 2 2 2 2 2 2 2 2 2 3 3 3 4
4 2 2 3 3 3 2 1 2 3 3 2 2 2 2 2 2 2 1 1 1 2 2 2 3 3 2 2 2 2 2 3 2 2 2 2 2 2 2 2 3 3 3 3
3 4 4 4 4 4 3 3 3 3 3 3 2 2 1 1 1 1 1 1 2 2 2 3 3 2 2 2 2 2 2 3 3 2 2 2 2 3 3 3 3 3 4 4
5 5 5 5 5 4 4 3 3 3 2 2 1 1 1 1 2 2 2 1 1 1 2 2 2 2 2 2 2 2 2 2 2 2 2 2 3 3 3 3 3 4 4 4
3 3 4 4 4 4 3 3 3 2 2 1 1 1 1 1 1 2 1 0 1 2 3 2 3 1 1 2 2 2 2 3 2 2 3 4 3 2 3 3 4 4 4 4
2 2 2 2 1 2 2 2 1 1 1 1 1 1 0 1 1 1 1 1 2 3 3 2 1 1 2 3 2 2 2 3 3 3 3 3 3 3 3 4 4 4 4 4
2 2 1 1 1 1 1 1 1 1 1 1 1 2 2 1 1 1 1 2 3 3 2 3 1 1 2 2 3 1 2 2 3 3 3 3 3 3 3 4 4 4 4 4
1 1 1 1 0 1 1 1 1 1 1 1 1 1 1 1 1 1 2 3 3 4 2 1 2 3 4 2 1 2 2 3 3 3 3 3 3 4 4 4 4 4 4 4
1 1 1 1 1 1 1 1 1 1 1 2 2 2 2 2 1 1 3 2 2 4 3 2 4 5 4 1 1 2 2 3 3 3 3 3 4 4 4 4 4 4 4 4
1 1 1 1 1 1 1 2 2 1 2 2 2 2 2 1 2 2 2 4 5 5 3 5 6 5 3 1 1 2 2 3 3 3 3 3 3 3 4 4 4 4 4 5
1 1 1 1 1 1 2 1 1 1 1 1 2 2 2 2 2 3 2 3 4 4 3 5 6 5 2 1 2 2 3 3 3 3 3 3 3 4 4 4 4 4 4 4
1 1 2 2 2 2 1 1 1 2 2 2 2 2 2 2 2 2 2 3 3 4 3 3 3 3 2 2 3 3 3 3 4 3 3 3 4 4 4 4 4 4 4 4
1 1 1 1 1 1 1 1 2 2 2 2 3 2 2 2 2 2 2 2 2 2 2 2 2 2 2 2 3 3 3 3 3 3 3 3 3 3 4 4 4 4 4 5
Wind_Direction
251 255 233 238 237 218 217 219 225 245 250 257 247 243 245 238 228 219 219 213 204 202 206 209 212 218 219 219 207 180 172 191 212 209 197 186 169 115 27 1 339 331 341 328
274 259 248 264 253 236 235 235 239 255 265 262 251 237 237 230 227 229 229 224 217 208 203 210 215 218 220 225 219 189 191 214 215 199 191 191 206 197 101 337 327 328 315 304
255 294 334 269 238 223 226 226 217 240 254 256 248 235 230 228 228 231 230 226 223 224 220 222 222 216 217 221 217 206 208 210 206 201 203 208 210 194 220 255 276 299 292 298
229 32 243 246 225 212 230 246 232 241 255 245 239 245 253 236 222 230 227 219 226 235 239 237 229 222 217 210 205 208 214 215 210 205 206 204 197 220 244 257 253 263 283 287
189 236 270 283 251 205 218 264 241 238 255 260 269 315 292 253 223 223 222 222 227 234 229 225 225 210 190 200 204 209 217 223 220 206 201 203 216 229 236 241 269 270 271 276
183 211 242 257 261 249 191 273 250 219 239 250 233 265 273 241 210 220 225 224 227 229 215 214 222 185 180 202 208 221 226 226 221 206 202 207 215 224 231 230 249 269 284 280
211 228 259 268 271 136 189 255 276 227 236 225 224 236 255 222 219 212 221 229 218 197 203 219 210 178 192 206 222 233 232 221 217 209 210 203 194 204 214 225 242 263 280 292
189 216 252 253 149 194 231 283 292 265 244 230 246 257 252 237 215 192 210 245 212 197 226 232 188 180 205 229 241 233 213 206 211 212 213 198 181 204 209 204 221 253 272 293
199 220 253 214 225 254 275 278 283 273 273 243 243 250 246 239 230 224 211 216 221 199 227 246 205 188 212 242 228 205 194 207 210 215 213 195 194 206 211 207 224 254 261 276
240 258 262 265 271 283 281 274 281 279 280 256 245 247 240 234 235 226 223 219 211 186 217 252 243 225 228 233 196 187 201 214 208 203 217 212 216 214 213 219 230 244 252 265
250 271 291 283 265 270 277 282 290 293 273 242 227 241 237 236 230 225 228 223 201 194 219 245 247 243 242 221 193 190 201 215 226 222 219 229 239 234 234 236 237 246 245 244
240 242 234 264 269 263 266 271 267 269 282 260 215 228 235 243 249 238 230 229 211 205 220 238 237 249 250 222 184 179 204 219 227 235 240 239 248 281 275 266 270 271 264 264
238 252 249 268 278 269 259 264 261 254 252 260 256 228 217 238 251 249 250 227 213 217 225 228 233 251 250 214 192 196 212 229 237 237 239 246 247 249 277 290 282 276 277 283
250 249 267 269 273 275 264 262 267 283 277 254 247 241 212 233 244 237 239 238 230 219 224 223 230 247 242 215 206 215 224 243 244 231 239 246 248 253 254 264 287 295 293 292
250 239 242 262 277 281 275 275 300 295 295 292 269 233 210 218 235 249 255 247 221 220 233 226 234 253 242 212 212 220 233 239 237 233 242 250 255 253 251 257 267 284 302 304
253 249 237 245 261 277 284 262 250 263 261 252 247 246 240 227 235 257 263 215 201 238 244 234 244 252 233 211 210 228 244 254 256 245 244 248 246 243 248 255 264 271 277 283
214 238 237 245 252 263 261 252 247 255 250 240 242 245 226 202 227 273 278 263 233 235 237 231 244 252 225 210 208 226 234 245 258 263 247 246 246 245 247 251 258 267 273 275
226 231 227 227 233 245 260 261 258 255 248 246 232 180 182 200 228 251 260 272 291 292 269 248 247 244 227 226 221 225 229 233 235 242 249 249 254 250 248 251 257 264 276 282
242 234 236 236 233 231 240 248 254 254 249 215 188 209 229 237 248 257 260 256 270 280 285 280 293 274 240 245 252 220 223 229 238 249 253 258 267 258 251 253 260 264 267 273
262 243 236 250 247 222 231 248 245 251 262 209 175 166 228 281 293 296 285 264 259 261 269 281 271 243 251 257 266 224 221 227 235 247 251 248 252 254 252 255 258 263 265 266
264 264 249 251 279 283 254 227 200 226 277 236 191 210 236 266 279 264 278 289 296 291 293 304 314 265 264 265 270 233 224 230 238 244 248 250 253 254 253 256 260 263 265 266
264 257 260 256 267 311 314 288 212 212 247 266 257 232 239 272 288 288 263 256 287 310 322 289 273 274 284 288 237 234 236 240 244 245 246 247 249 253 254 256 260 263 264 262
248 231 231 238 235 273 321 315 252 226 232 243 245 243 246 256 256 255 283 282 292 304 315 282 287 291 297 292 244 243 246 248 250 252 252 251 249 250 252 255 257 259 260 260
238 233 242 242 139 120 302 301 302 290 268 269 265 256 249 267 279 258 259 294 303 306 299 293 297 298 308 311 264 261 259 259 258 258 257 256 254 254 254 256 258 258 258 260
225 219 200 187 203 245 259 285 313 306 293 286 284 280 264 240 249 274 281 287 299 309 302 302 306 307 316 286 267 263 263 262 263 262 256 257 257 256 257 258 260 264 263 261
247 254 256 249 243 244 253 262 275 281 285 291 295 288 283 277 266 273 282 285 288 302 304 300 303 302 284 268 263 263 264 272 279 275 266 263 261 259 259 260 260 261 264 264
291 281 279 294 285 262 257 258 259 269 269 266 279 282 282 285 284 284 289 294 294 292 288 287 287 281 275 272 272 271 271 270 268 267 266 264 262 261 261 261 264 266 267 266
Height
1499 1496 1497 1496 1495 1496 1498 1497 1497 1488 1484 1475 1475 1475 1474 1474 1474 1475 1475 1476 1476 1476 1477 1477 1477 1477 1478 1478 1478 1478 1478 1478 1478 1478 1479 1479 1479 1479 1479 1478 1478 1478 1477 1477
1499 1495 1495 1494 1490 1490 1489 1489 1488 1484 1478 1470 1471 1472 1472 1472 1472 1472 1472 1472 1473 1473 1474 1474 1474 1474 1474 1474 1474 1474 1474 1475 1475 1475 1476 1476 1476 1476 1476 1475 1475 1475 1474 1474
1499 1498 1495 1494 1483 1482 1482 1479 1479 1477 1469 1468 1469 1469 1468 1468 1468 1468 1468 1469 1469 1470 1470 1471 1471 1471 1470 1470 1471 1471 1471 1471 1472 1472 1472 1473 1473 1473 1473 1472 1472 1472 1471 1471
1502 1501 1500 1478 1473 1473 1474 1471 1471 1467 1465 1465 1465 1464 1464 1464 1464 1465 1465 1465 1466 1466 1467 1467 1467 1467 1467 1467 1467 1467 1468 1468 1468 1468 1469 1469 1470 1470 1470 1469 1469 1468 1468 1467
1503 1502 1490 1476 1471 1471 1472 1468 1464 1464 1462 1462 1462 1461 1460 1460 1461 1461 1462 1462 1463 1463 1463 1463 1463 1463 1463 1463 1463 1464 1464 1464 1465 1465 1465 1466 1466 1466 1466 1466 1466 1465 1465 1464
1501 1498 1491 1471 1467 1466 1468 1467 1459 1459 1459 1459 1460 1462 1458 1457 1457 1458 1458 1459 1459 1460 1460 1460 1459 1459 1459 1459 1460 1460 1460 1461 1461 1462 1462 1462 1463 1463 1463 1463 1462 1462 1461 1461
1495 1494 1480 1469 1465 1465 1471 1463 1457 1455 1455 1456 1456 1456 1455 1454 1454 1455 1455 1455 1456 1456 1456 1456 1456 1456 1456 1456 1456 1457 1457 1458 1458 1458 1459 1459 1459 1460 1460 1459 1459 1459 1458 1458
1491 1491 1479 1464 1465 1465 1461 1456 1455 1454 1453 1453 1453 1452 1452 1452 1451 1452 1452 1452 1453 1453 1453 1453 1453 1453 1452 1452 1453 1453 1454 1454 1455 1455 1456 1456 1456 1456 1456 1456 1456 1456 1455 1454
1476 1471 1462 1460 1459 1458 1457 1455 1453 1452 1452 1451 1450 1450 1449 1449 1449 1450 1450 1450 1450 1450 1450 1450 1450 1450 1450 1450 1450 1450 1450 1451 1451 1452 1452 1453 1453 1453 1453 1453 1452 1452 1451 1451
1470 1463 1459 1457 1456 1456 1455 1453 1451 1451 1450 1449 1448 1447 1447 1447 1447 1447 1447 1447 1447 1447 1447 1447 1447 1447 1447 1447 1447 1447 1447 1448 1448 1448 1449 1449 1450 1450 1450 1449 1449 1449 1448 1447
1465 1459 1456 1452 1453 1452 1451 1450 1449 1448 1447 1447 1445 1445 1445 1444 1444 1444 1444 1444 1444 1444 1444 1445 1445 1444 1444 1444 1444 1444 1444 1444 1445 1445 1446 1446 1446 1446 1447 1447 1447 1446 1445 1445
1457 1453 1453 1450 1449 1449 1447 1446 1446 1445 1444 1443 1443 1442 1442 1442 1442 1442 1442 1442 1442 1442 1442 1442 1442 1441 1441 1442 1441 1441 1441 1441 1442 1442 1442 1443 1443 1443 1443 1444 1443 1443 1443 1442
1448 1448 1448 1446 1445 1445 1444 1443 1442 1442 1441 1440 1440 1440 1440 1440 1440 1440 1440 1440 1439 1439 1439 1439 1439 1439 1439 1439 1439 1439 1438 1438 1439 1439 1439 1439 1439 1439 1439 1439 1440 1439 1439 1439
1445 1445 1444 1442 1442 1441 1441 1440 1439 1439 1438 1438 1438 1437 1437 1437 1437 1437 1437 1437 1437 1437 1436 1436 1436 1436 1436 1436 1436 1436 1436 1436 1436 1436 1436 1436 1436 1436 1436 1435 1435 1435 1435 1435
1441 1441 1440 1439 1439 1438 1438 1437 1436 1436 1435 1435 1435 1435 1435 1434 1434 1435 1435 1435 1434 1434 1434 1434 1433 1433 1433 1433 1433 1433 1433 1433 1433 1433 1433 1433 1433 1433 1433 1433 1432 1431 1431 1431
1437 1437 1437 1436 1436 1435 1434 1434 1433 1433 1433 1432 1432 1432 1432 1432 1432 1432 1432 1432 1431 1431 1431 1431 1431 1431 1430 1431 1430 1430 1431 1431 1430 1430 1430 1430 1430 1430 1429 1429 1429 1428 1427 1427
1434 1434 1433 1433 1433 1432 1432 1431 1431 1430 1430 1430 1429 1430 1430 1430 1430 1430 1430 1430 1429 1429 1429 1428 1428 1428 1428 1428 1428 1428 1427 1427 1427 1427 1426 1426 1426 1426 1426 1425 1425 1424 1424 1424
1431 1431 1431 1430 1430 1429 1429 1429 1429 1428 1428 1427 1427 1427 1427 1427 1427 1427 1427 1427 1427 1427 1426 1426 1426 1425 1425 1425 1425 1425 1424 1424 1423 1423 1423 1423 1423 1423 1422 1422 1421 1421 1420 1420
1428 1428 1428 1428 1427 1427 1427 1426 1426 1426 1426 1426 1425 1425 1425 1425 1425 1425 1425 1424 1424 1423 1424 1424 1423 1423 1422 1422 1422 1421 1421 1421 1420 1420 1420 1420 1419 1419 1419 1418 1418 1417 1416 1415
1425 1425 1425 1425 1425 1425 1424 1424 1424 1424 1424 1424 1423 1423 1423 1423 1423 1423 1422 1422 1422 1421 1421 1421 1420 1420 1419 1419 1419 1418 1418 1417 1417 1417 1416 1416 1416 1415 1415 1415 1414 1413 1413 1412
1423 1423 1423 1423 1423 1423 1423 1423 1422 1422 1422 1422 1422 1421 1421 1421 1421 1421 1420 1419 1419 1419 1418 1418 1417 1417 1416 1416 1415 1415 1415 1414 1414 1413 1413 1413 1412 1412 1412 1411 1410 1410 1409 1408
1421 1421 1421 1421 1421 1421 1421 1421 1421 1421 1421 1420 1420 1420 1420 1419 1419 1418 1418 1418 1417 1416 1416 1415 1415 1414 1414 1413 1412 1412 1411 1411 1410 1410 1410 1409 1409 1409 1408 1408 1407 1406 1406 1405
1420 1420 1420 1420 1420 1420 1420 1420 1420 1419 1419 1419 1418 1418 1418 1417 1417 1416 1415 1415 1414 1414 1413 1412 1412 1411 1411 1410 1409 1409 1408 1408 1407 1407 1406 1406 1406 1405 1405 1404 1403 1403 1402 1401
1419 1419 1419 1419 1419 1419 1418 1418 1418 1418 1417 1417 1417 1416 1416 1415 1414 1414 1413 1412 1412 1411 1410 1410 1409 1409 1408 1407 1406 1405 1405 1404 1404 1404 1403 1403 1402 1402 1401 1400 1399 1399 1398 1397
1418 1418 1418 1418 1417 1417 1417 1416 1416 1415 1415 1415 1414 1414 1413 1413 1412 1411 1410 1410 1409 1408 1407 1407 1406 1405 1404 1404 1403 1402 1402 1401 1401 1400 1400 1399 1399 1398 1397 1397 1396 1395 1394 1393
1417 1417 1417 1416 1416 1416 1415 1415 1414 1413 1413 1412 1412 1411 1411 1410 1409 1408 1408 1407 1406 1405 1404 1404 1403 1402 1401 1401 1400 1399 1398 1398 1398 1397 1397 1396 1395 1395 1394 1393 1392 1392 1391 1390
1416 1415 1415 1414 1414 1414 1413 1413 1412 1412 1411 1410 1409 1409 1408 1407 1406 1406 1405 1404 1403 1402 1402 1401 1400 1399 1398 1397 1397 1396 1395 1395 1394 1394 1393 1393 1392 1391 1391 1390 1389 1388 1387 1386